This demonstration page uses our WeatherBlox Daily Observations layout. Learn more.

Left ArrowRight Arrow

41.55636, -103.73856

Hourly Observations for July 21, 2015

Temp ( °F °C ) Dew Point ( °F °C ) Humidity (%) Winds ( mph kmh ) Pressure ( in mb ) Visibility ( mi km ) Precip ( " mm )
12:53 am 00:53 Clear 65 18.3 57 13.9 76 76 E 8 13 29.93 1014 10 16.0934 0 0
1:53 am 01:53 Clear 65 18.3 58 14.4 78 78 ESE 9 15 29.93 1013 10 16.0934 0 0
2:53 am 02:53 Clear 65 18.3 58 14.4 78 78 ESE 8 13 29.92 1013 10 16.0934 0 0
3:53 am 03:53 Mostly Clear 65 18.3 58 14.4 78 78 E 8 13 29.91 1013 10 16.0934 0 0
4:53 am 04:53 Cloudy with Light Rain 64 17.8 60 15.6 87 87 ENE 5 7 29.92 1013 10 16.0934 0.01 0.254
5:53 am 05:53 Cloudy 65 18.3 61 16.1 87 87 ESE 8 13 29.91 1013 10 16.0934 0.01 0.254
6:53 am 06:53 Cloudy 65 18.3 61 16.1 87 87 ESE 6 9 29.91 1013 10 16.0934 0 0
7:53 am 07:53 Cloudy with Light Rain 67 19.4 60 15.6 79 79 WSW 13 20 29.93 1014 6 9.65604 0 0.0254
8:53 am 08:53 Cloudy with Light Rain 64 17.8 59 15 84 84 S 6 9 29.96 1014 5 8.0467 0.12 3.048
9:53 am 09:53 Cloudy with Rain 63 17.2 61 16.1 93 93 E 9 15 29.98 1015 4 6.43736 0.09 2.286
10:53 am 10:53 Cloudy with Light Rain 65 18.3 61 16.1 87 87 E 6 9 29.96 1015 10 16.0934 0.17 4.318
11:53 am 11:53 Cloudy with Light Rain 64 17.8 61 16.1 90 90 N 7 11 29.97 1015 8 12.87472 0.01 0.254
12:27 pm 12:27 Cloudy with Nearby Thunderstorms 64 17.8 62 16.7 93 93 N 5 7 29.91 1013 2.5 4.02335 0.06 1.524
12:32 pm 12:32 Cloudy with Heavy Thunderstorms 64 18 63 17 94 94 NNW 5 7 29.91 1013 1.5 2.41401 0 0
12:43 pm 12:43 Cloudy with Thunderstorms 64 17.8 62 16.7 93 93 NE 3 6 29.91 1013 3 4.82802 0.14 3.556
12:50 pm 12:50 Cloudy with Rain 64 18 63 17 94 94 NNE 3 6 29.91 1013 3 4.82802 0 0
12:53 pm 12:53 Cloudy with Light Rain 64 17.8 62 16.7 93 93 NNE 5 7 29.96 1015 3 4.82802 0.17 4.318
1:14 pm 13:14 Cloudy with Rain 64 18 63 17 94 94 Calm 29.91 1013 2.5 4.02335 0 0
1:43 pm 13:43 Cloudy with Light Rain 65 18.3 63 17.2 93 93 ESE 8 13 29.91 1013 7 11.26538 0.15 3.81
1:53 pm 13:53 Cloudy with Light Rain 65 18.3 63 17.2 93 93 ESE 8 13 29.94 1014 6 9.65604 0.16 4.064
2:53 pm 14:53 Mostly Sunny 66 18.9 63 17.2 90 90 E 12 19 29.9 1012 10 16.0934 0 0.0254
3:53 pm 15:53 Partly Cloudy 66 18.9 63 17.2 90 90 E 7 11 29.89 1012 10 16.0934 0 0
4:53 pm 16:53 Cloudy with Light Rain 66 18.9 63 17.2 90 90 SE 13 20 29.85 1011 6 9.65604 0.01 0.254
5:53 pm 17:53 Cloudy 68 20 61 16.1 78 78 SSE 13 20 29.85 1011 10 16.0934 0.02 0.508
6:53 pm 18:53 Mostly Cloudy 68 20 58 14.4 70 70 S 15 24 29.84 1011 10 16.0934 0 0
7:53 pm 19:53 Partly Cloudy 67 19.4 59 15 76 76 S 16 26 29.84 1010 10 16.0934 0 0
8:53 pm 20:53 Mostly Clear 67 19.4 57 13.9 71 71 SSE 10 17 29.84 1011 10 16.0934 0 0
9:53 pm 21:53 Mostly Clear 65 18.3 58 14.4 78 78 SSE 6 9 29.85 1011 10 16.0934 0 0
10:53 pm 22:53 Clear 66 18.9 58 14.4 75 75 S 9 15 29.84 1010 10 16.0934 0 0
11:53 pm 23:53 Clear 64 17.8 58 14.4 81 81 ESE 3 6 29.85 1011 10 16.0934 0 0

Powered by AerisWeather